Location: Darlington Observatory
(36.4817°N, 105.8156°W)
Time: 09:00:10
(UTC-06:00)

MOS 1 - Visible Passes

Search period start: 25 August 2016 00:00
Search period end: 04 September 2016 00:00
Orbit: 879 x 892 km, 99.3° (Epoch: 24 August)

Date Brightness Start Highest point End Pass type
(mag) Time Alt. Az. Time Alt. Az. Time Alt. Az.
29 Aug 7.8 20:05:47 10° W 20:06:13 10° W 20:06:39 10° W visible
30 Aug 7.7 20:03:16 10° WSW 20:04:28 11° W 20:05:41 10° WNW visible
31 Aug 7.7 20:01:05 10° WSW 20:02:43 11° W 20:04:23 10° WNW visible
01 Sep 7.6 19:59:01 10° WSW 20:00:59 12° W 20:02:58 10° WNW visible
02 Sep 7.5 19:56:59 10° WSW 19:59:14 12° W 20:01:30 10° WNW visible
03 Sep 7.5 19:54:59 10° WSW 19:57:30 13° W 20:00:00 10° WNW visible
